Theta_e
296 297 298 299 301 304 307 310 312 314 316 323 325 324 324 323 322 322 321 320 319 319
293 294 295 295 296 297 300 302 304 306 310 314 320 324 324 323 322 322 322 321 321 320
290 292 292 291 290 292 294 296 297 299 302 306 313 318 322 323 323 322 322 322 321 321
288 288 290 288 288 289 290 291 293 294 297 301 305 310 315 318 321 321 321 321 321 320
285 285 285 286 285 286 287 289 290 293 293 296 298 301 305 309 316 318 319 320 320 319
282 281 281 281 282 283 284 286 288 290 292 293 294 296 299 302 307 306 309 315 318 319
279 278 278 279 280 281 281 282 285 288 290 292 292 294 295 297 297 298 300 304 307 311
277 276 276 277 277 278 279 280 282 284 287 290 291 292 293 293 294 294 295 297 300 303
275 275 275 275 276 276 277 277 278 280 283 286 289 291 292 293 293 294 293 294 296 298
273 273 273 274 274 274 275 276 276 278 282 284 286 290 291 291 291 292 293 294 294 295
272 271 272 272 272 272 273 274 275 277 279 281 284 288 289 290 290 291 292 293 293 293
270 270 271 271 271 272 273 273 275 277 279 280 282 287 288 290 289 288 289 290 291 291
269 269 269 270 271 272 273 275 277 278 281 283 284 287 289 290 288 287 288 289 288 287
268 269 270 271 271 272 273 275 276 279 280 281 282 284 288 290 288 287 287 287 288 288
Wind_Speed
12 8 7 9 8 7 7 8 12 12 12 12 12 12 12 10 11 12 12 16 14 11
11 11 10 11 10 9 10 11 12 14 13 13 13 12 12 10 12 12 12 13 14 14
11 10 10 9 11 12 12 13 13 14 14 15 14 13 12 11 12 13 11 11 14 14
10 11 10 9 11 11 12 13 13 13 14 14 14 14 15 13 13 14 14 13 14 16
11 12 11 11 12 12 13 13 14 13 14 13 13 14 14 15 15 13 13 13 14 16
12 13 13 14 13 12 13 14 14 13 14 15 15 15 14 14 14 14 16 15 14 15
14 16 15 15 15 14 13 14 14 14 14 14 15 15 15 15 15 15 14 14 14 16
14 14 14 14 14 15 14 13 14 15 14 13 12 10 15 18 17 17 18 14 13 14
13 14 14 14 15 15 15 14 14 14 14 14 10 18 22 20 16 17 18 17 16 13
13 14 14 14 14 15 16 16 16 15 14 15 16 22 24 24 15 15 14 17 16 13
14 15 14 14 14 14 13 15 15 16 17 16 14 25 27 26 17 14 14 14 13 13
14 15 15 15 16 15 15 15 15 15 18 19 19 28 28 25 16 14 15 12 13 13
15 14 15 15 16 15 14 15 13 17 16 18 19 26 28 24 13 15 12 13 11 14
13 13 13 14 13 13 13 13 12 15 14 16 18 21 29 28 15 12 12 11 9 8
Wind_Direction
11 8 6 356 347 344 335 331 333 327 320 303 266 254 251 245 239 236 235 235 230 238
7 6 3 357 356 347 340 334 333 326 322 320 314 280 259 252 249 239 237 241 239 237
359 353 356 354 356 346 336 333 331 330 328 322 317 309 289 270 265 260 251 243 239 239
1 354 349 350 348 342 333 333 329 328 325 323 322 324 318 294 280 265 260 255 255 246
357 355 345 344 343 337 335 331 325 326 327 325 322 322 318 319 318 291 278 270 257 250
356 352 345 340 336 335 337 326 320 324 324 327 324 324 320 314 323 326 321 312 285 269
352 346 342 335 334 333 332 321 320 319 318 321 322 319 316 322 317 309 305 307 306 312
342 336 330 331 329 329 318 319 314 312 309 313 313 313 318 313 309 306 304 299 298 299
335 329 330 329 327 323 321 320 315 313 311 312 309 316 310 301 298 300 299 296 295 293
333 331 330 323 324 324 323 320 317 314 313 314 311 307 302 299 294 291 287 290 293 291
339 329 324 324 326 321 321 319 317 314 314 310 306 307 306 301 295 288 281 279 279 277
336 328 330 330 326 320 319 318 319 317 314 315 309 307 305 303 300 290 281 275 269 272
327 326 326 322 326 323 318 314 315 319 313 307 311 312 307 304 297 292 290 281 271 259
319 319 319 321 317 314 314 313 314 335 336 326 326 320 315 306 297 292 290 284 285 283